* Astronomy

Members Login
Post Info TOPIC: Asteroid 2014 WG365


L

Posts: 131433
Date:
RE: Asteroid 2014 WG365
Permalink  
 


The 270 - 590 metre wide asteroid 2014 WG365 will make a close pass (23.6 lunar distances, 0.06082 AU), travelling at 14.82 km/second, to the Earth on the 29th May 2018 @ 09:10 UT 00:01.

See more

The Lunar Distance (LD), the distance between Earth and the Moon, equals 384,401 km, (or 0.00256 AU).



__________________


L

Posts: 131433
Date:
Permalink  
 

Orbital elements:
2014 WG365                                          PHA, Earth MOID = 0.0121 AU
Epoch 2015 June 27.0 TT = JDT 2457200.5                 MPC
M  43.74651              (2000.0)            P               Q
n   0.66775281     Peri.  111.11450     -0.91546167     +0.01108014
a   1.2963598      Node    71.37075     -0.22315726     -0.84580793
e   0.3335458      Incl.   25.11862     +0.33485932     -0.53337245
P   1.48           H   19.8           G   0.15           U   3

MPEC 2015 - J19



__________________
Page 1 of 1  sorted by
 
Quick Reply

Please log in to post quick replies.



Create your own FREE Forum
Report Abuse
Powered by ActiveBoard